Simultaneous Nadir Overpasses (SNOs) Predictions

Prediction of SNOs between AQUA and NPP Satellite Orbit:

Table of predicted SNOs for the next 14.0 days since TLE Epoch: 6/5/2015
Index Date (AQUA) Time (AQUA) Lat,Lon (AQUA) SZA (AQUA ) Date (NPP) Time (NPP) Lat,Lon (NPP) SZA (NPP ) Distance(km) Time Diff (sec)
1 06/07/2015 03:11:28 -53.46, 167.30 81.99 06/07/2015 03:10:15 -53.53, 166.74 81.77 37.94 73
2 06/07/2015 03:55:49 70.85, -10.56 80.58 06/07/2015 03:55:45 70.86, -10.51 80.56 2.17 4
3 06/07/2015 04:44:40 -72.83, 160.48 101.54 06/07/2015 04:45:53 -72.83, 160.45 101.60 0.92 73
4 06/09/2015 19:23:42 -68.15, -65.98 96.81 06/09/2015 19:22:46 -68.15, -65.98 96.76 0.12 56
5 06/09/2015 20:12:10 71.30, 106.01 79.91 06/09/2015 20:12:30 71.30, 106.00 79.89 0.39 20
6 06/12/2015 11:39:55 -69.08, 51.04 97.93 06/12/2015 11:39:23 -69.08, 51.01 97.89 1.37 32
7 06/12/2015 12:28:27 71.99,-136.96 79.02 06/12/2015 12:29:11 71.98,-137.00 78.98 1.18 44
8 06/15/2015 03:56:03 -70.26, 168.52 99.26 06/15/2015 03:55:55 -70.26, 168.50 99.25 0.87 8
9 06/15/2015 04:44:39 72.91, -19.38 77.91 06/15/2015 04:45:47 72.91, -19.38 77.84 0.13 68
10 06/17/2015 19:23:44 68.05, 113.89 82.99 06/17/2015 19:22:44 68.05, 113.88 83.05 0.30 60
11 06/17/2015 20:12:07 -71.62, -73.49 100.76 06/17/2015 20:12:23 -71.62, -73.45 100.79 1.54 16




NCC Satellite Simultaneous Nadir
